| time (UTC) | temp F | wind direction | speed MPH | gust MPH | rain 1hr in | rain 24hr in | rain mn in | humidity % | barometer mb |
| 20260507003041 | 77 | 270 | 2.0 | 8.0 | 0.00 | 0.00 | 0.00 | 59 | 1014.9 |
| 20260507000020 | 76 | 270 | 2.0 | 7.0 | 0.00 | 0.00 | 0.00 | 59 | 1014.9 |
| 20260506233020 | 77 | 180 | 2.0 | 8.0 | 0.00 | 0.00 | 0.00 | 57 | 1015.1 |
| 20260506230021 | 76 | 180 | 2.0 | 5.0 | 0.00 | 0.00 | 0.00 | 60 | 1015.3 |
| 20260506223040 | 75 | 180 | 2.0 | 7.0 | 0.00 | 0.00 | 0.00 | 60 | 1015.7 |
| 20260506220016 | 74 | 180 | 3.0 | 6.0 | 0.00 | 0.00 | 0.00 | 61 | 1016.1 |
| 20260506213020 | 73 | 180 | 3.0 | 6.0 | 0.00 | 0.00 | 0.00 | 63 | 1016.4 |
| 20260506210041 | 75 | 180 | 2.0 | 5.0 | 0.00 | 0.00 | 0.00 | 61 | 1016.6 |
| 20260506203020 | 73 | 180 | 2.0 | 5.0 | 0.00 | 0.00 | 0.00 | 63 | 1016.9 |
| 20260506200036 | 74 | 202 | 2.0 | 7.0 | 0.00 | 0.00 | 0.00 | 60 | 1017.1 |
| 20260506193020 | 74 | 180 | 1.0 | 5.0 | 0.00 | 0.00 | 0.00 | 61 | 1017.4 |
| 20260506190020 | 72 | 202 | 1.0 | 5.0 | 0.00 | 0.00 | 0.00 | 63 | 1017.6 |
| 20260506183022 | 70 | 202 | 1.0 | 4.0 | 0.00 | 0.00 | 0.00 | 65 | 1017.7 |
| 20260506173023 | 63 | 292 | 1.0 | 5.0 | 0.00 | 0.00 | 0.00 | 76 | 1017.9 |
| 20260506170022 | 61 | 292 | 1.0 | 4.0 | 0.00 | 0.00 | 0.00 | 78 | 1017.9 |
| 20260506163022 | 59 | 292 | 1.0 | 4.0 | 0.00 | 0.00 | 0.00 | 82 | 1018.0 |
| 20260506160018 | 58 | 292 | 1.0 | 4.0 | 0.00 | 0.00 | 0.00 | 84 | 1018.1 |
| 20260506153022 | 56 | 0.0 | 3.0 | 0.00 | 0.00 | 0.00 | 90 | 1018.1 | |
| 20260506150021 | 54 | 0.0 | 4.0 | 0.00 | 0.00 | 0.00 | 93 | 1018.2 | |
| 20260506143022 | 53 | 0.0 | 3.0 | 0.00 | 0.00 | 0.00 | 94 | 1018.3 | |
| 20260506140023 | 52 | 0.0 | 1.0 | 0.00 | 0.00 | 0.00 | 94 | 1018.0 | |
| 20260506133022 | 52 | 0.0 | 3.0 | 0.00 | 0.00 | 0.00 | 93 | 1017.6 | |
| 20260506130021 | 52 | 0.0 | 2.0 | 0.00 | 0.00 | 0.00 | 93 | 1017.5 | |
| 20260506123017 | 52 | 0.0 | 0.0 | 0.00 | 0.00 | 0.00 | 93 | 1017.2 | |
| 20260506120021 | 52 | 0.0 | 3.0 | 0.00 | 0.00 | 0.00 | 93 | 1017.1 | |
| 20260506113042 | 52 | 0.0 | 2.0 | 0.00 | 0.00 | 0.00 | 93 | 1017.0 | |
| 20260506110021 | 52 | 0.0 | 0.0 | 0.00 | 0.00 | 0.00 | 93 | 1016.9 | |
| 20260506103022 | 52 | 0.0 | 0.0 | 0.00 | 0.00 | 0.00 | 93 | 1016.8 | |
| 20260506100021 | 52 | 0.0 | 0.0 | 0.00 | 0.00 | 0.00 | 93 | 1016.9 | |
| 20260506093022 | 52 | 0.0 | 0.0 | 0.00 | 0.00 | 0.00 | 93 | 1016.9 | |
| 20260506090017 | 52 | 0.0 | 0.0 | 0.00 | 0.00 | 0.00 | 91 | 1016.7 | |
| 20260506083021 | 53 | 0.0 | 0.0 | 0.00 | 0.00 | 0.00 | 90 | 1016.7 | |
| 20260506073021 | 55 | 0.0 | 0.0 | 0.00 | 0.00 | 0.00 | 86 | 1016.4 | |
| 20260506043020 | 57 | 0.0 | 1.0 | 0.00 | 0.00 | 0.00 | 83 | 1015.3 | |
| 20260506040021 | 57 | 0.0 | 2.0 | 0.00 | 0.00 | 0.00 | 84 | 1015.1 | |
| 20260506033021 | 57 | 0.0 | 2.0 | 0.00 | 0.00 | 0.00 | 84 | 1014.7 | |
| 20260506030020 | 58 | 0.0 | 0.0 | 0.00 | 0.00 | 0.00 | 84 | 1014.3 | |
| 20260506023021 | 58 | 0.0 | 1.0 | 0.00 | 0.00 | 0.00 | 83 | 1014.1 | |
| 20260506020021 | 59 | 0.0 | 1.0 | 0.00 | 0.00 | 0.00 | 83 | 1014.2 | |
| 20260506013016 | 59 | 0.0 | 2.0 | 0.00 | 0.00 | 0.00 | 82 | 1014.0 | |
| 20260506010021 | 60 | 0.0 | 2.0 | 0.00 | 0.00 | 0.00 | 80 | 1013.9 |